Temp
52 51 51 50 48 47 47 48 49 49 50 51 51 51 52 51 51 51 48 48 48 51
45 45 44 44 45 44 44 47 45 46 47 48 47 48 49 47 46 46 45 45 45 45
42 43 42 42 40 41 42 43 43 44 45 45 46 44 44 44 43 44 44 44 43 43
39 40 40 39 38 39 40 40 41 42 42 42 41 41 40 41 40 41 41 41 41 41
38 38 36 36 37 37 37 38 38 39 39 39 38 38 38 37 38 38 39 39 40 40
34 34 33 34 34 35 35 36 37 37 37 36 35 36 37 37 37 38 38 37 37 37
32 32 33 33 33 33 34 34 34 34 35 34 35 35 34 34 36 36 36 36 36 35
31 31 31 31 31 31 32 33 33 32 33 34 34 35 33 33 34 34 33 34 34 34
29 29 29 29 29 30 30 31 31 30 30 30 33 34 34 33 32 32 31 30 30 32
28 27 27 28 27 27 27 28 28 28 28 28 29 33 33 32 31 29 29 29 28 29
26 26 26 26 26 26 26 26 25 26 27 26 28 31 32 30 29 28 28 27 27 26
26 24 24 23 23 24 25 25 25 26 24 24 25 30 31 28 26 26 25 26 26 26
24 23 22 22 22 23 24 25 25 25 24 24 23 28 30 28 24 23 23 24 25 26
22 21 21 20 20 20 20 22 19 21 21 22 23 24 28 28 24 23 20 20 21 22
MSLP
1017.84 1018.05 1018.35 1018.56 1018.77 1019.01 1019.17 1019.17 1019.12 1018.87 1018.47 1018.32 1018.41 1018.23 1017.99 1018.10 1018.23 1018.11 1018.08 1018.18 1018.27 1018.18
1019.09 1019.22 1019.50 1019.67 1019.68 1019.78 1019.87 1019.74 1019.72 1019.42 1019.37 1019.25 1019.07 1018.88 1018.86 1018.83 1019.17 1018.98 1018.96 1019.18 1019.20 1018.98
1019.77 1019.93 1020.11 1020.36 1020.45 1020.50 1020.46 1020.37 1020.17 1020.13 1020.06 1020.01 1019.74 1019.98 1019.71 1019.89 1019.98 1019.92 1019.84 1019.52 1019.95 1019.75
1020.39 1020.54 1020.73 1020.92 1021.11 1021.04 1021.06 1020.97 1020.91 1020.77 1020.70 1020.57 1020.55 1020.80 1020.75 1020.58 1020.39 1020.62 1020.55 1020.48 1020.59 1020.29
1021.12 1021.26 1021.38 1021.51 1021.52 1021.53 1021.61 1021.45 1021.23 1021.02 1021.06 1021.23 1021.38 1021.19 1021.11 1021.28 1021.21 1021.17 1020.93 1021.07 1020.83 1020.84
1021.75 1021.85 1021.91 1021.84 1022.06 1021.97 1022.06 1022.06 1021.85 1021.66 1021.53 1021.83 1021.90 1021.83 1022.02 1021.77 1021.79 1021.73 1021.51 1021.63 1021.41 1021.36
1022.29 1022.33 1022.36 1022.40 1022.40 1022.25 1022.21 1022.09 1022.26 1022.26 1022.03 1022.04 1022.33 1022.29 1022.40 1022.44 1022.29 1022.22 1022.08 1022.04 1022.05 1022.15
1022.54 1022.82 1022.72 1022.61 1022.82 1022.83 1022.60 1022.59 1022.58 1022.71 1022.56 1022.51 1022.42 1022.91 1022.62 1022.90 1022.83 1022.68 1022.66 1022.53 1022.44 1022.31
1022.56 1022.82 1022.95 1022.91 1022.88 1022.96 1023.08 1023.24 1023.27 1023.00 1022.98 1023.07 1023.06 1023.09 1022.93 1023.07 1023.20 1023.00 1023.14 1022.95 1022.77 1022.65
1022.64 1023.02 1023.47 1023.36 1023.30 1023.40 1023.32 1023.46 1023.78 1023.72 1023.65 1023.67 1023.56 1023.46 1023.42 1023.38 1023.58 1023.37 1023.50 1023.38 1023.24 1022.85
1022.95 1023.25 1023.61 1023.67 1023.54 1023.60 1023.62 1023.73 1024.24 1024.54 1024.40 1024.08 1024.06 1023.77 1023.69 1023.81 1023.85 1023.67 1023.82 1023.71 1023.52 1023.36
1022.81 1023.39 1023.80 1023.87 1024.01 1024.01 1023.93 1023.80 1024.16 1024.68 1024.56 1024.39 1024.46 1024.23 1023.83 1024.00 1023.86 1023.83 1023.90 1023.76 1023.67 1023.45
1023.01 1023.14 1023.70 1024.13 1024.01 1024.14 1023.93 1024.01 1024.61 1024.75 1024.51 1024.66 1024.94 1024.58 1024.09 1023.98 1024.04 1023.92 1024.05 1023.97 1023.67 1023.11
1023.51 1023.70 1023.65 1024.24 1024.46 1024.15 1023.97 1024.65 1024.57 1024.70 1024.68 1024.87 1024.99 1024.90 1024.49 1024.19 1024.09 1024.04 1024.38 1024.14 1023.75 1023.57
Wind_Speed
12 8 8 9 7 7 6 6 9 9 9 10 11 10 8 7 8 10 10 13 11 7
8 9 8 9 8 6 7 8 8 8 9 10 10 10 9 9 9 9 9 9 10 8
7 7 7 7 8 7 7 7 8 8 9 9 10 11 10 8 10 9 8 8 10 8
6 6 7 7 7 6 6 7 8 8 9 9 12 12 10 10 11 11 9 9 9 10
6 6 6 6 7 7 7 7 8 8 9 11 11 11 11 11 10 9 10 10 10 11
5 5 6 6 6 7 7 8 9 9 9 11 11 11 11 10 9 9 9 9 10 10
5 5 5 6 6 7 6 8 8 8 9 11 10 11 11 9 9 8 9 9 10 10
5 4 5 6 6 6 6 7 7 7 8 9 10 9 11 9 7 8 8 8 9 8
5 4 5 5 5 5 6 7 7 7 7 9 8 16 18 11 7 8 8 8 9 8
5 5 4 4 5 5 6 5 6 6 6 7 8 16 18 15 6 7 8 9 9 9
6 5 4 3 5 5 4 5 4 5 6 6 7 15 17 14 6 7 7 8 8 8
7 4 4 4 4 3 4 5 4 4 5 5 5 13 16 11 6 7 7 8 7 8
6 5 5 3 4 2 3 5 3 4 5 5 5 11 15 13 5 7 7 7 8 14
4 3 5 3 2 2 4 3 2 3 2 4 6 6 13 15 7 6 6 7 7 8
Wind_Direction
39 50 47 42 46 46 31 34 21 16 27 31 31 23 21 27 26 26 27 27 16 360
42 49 51 44 45 47 34 34 24 23 30 33 32 26 27 47 27 29 26 28 19 10
52 53 58 53 45 40 42 34 33 32 42 37 41 39 35 39 25 28 25 32 16 17
57 53 56 56 44 39 43 33 36 39 45 40 50 37 34 36 33 34 23 25 16 16
53 60 64 59 54 37 46 44 48 51 50 53 45 39 39 32 28 28 30 22 22 21
61 61 61 61 53 51 49 43 45 49 52 59 45 35 27 28 22 24 29 24 22 20
65 65 66 61 62 59 54 60 54 46 54 67 48 39 29 14 25 26 35 31 24 20
75 62 64 66 59 57 52 60 67 62 52 64 51 34 32 10 28 34 30 29 26 22
98 79 72 74 72 71 61 54 52 56 67 59 50 38 33 30 22 34 26 22 20 15
102 93 62 70 72 52 64 61 57 55 43 76 47 35 33 32 22 31 22 22 13 10
110 105 96 83 83 70 73 67 56 58 53 56 42 32 32 30 25 29 21 18 13 6
125 117 113 94 81 55 68 73 72 75 72 56 43 28 29 33 24 18 15 7 7 358
138 129 116 96 90 75 76 83 72 66 79 60 60 21 26 31 20 10 9 353 360 5
141 119 95 111 109 86 74 82 77 68 84 64 63 20 22 15 27 15 6 351 357 357